Content
SEND FEEDBACK

Daily
Averages
Monthly
Summary
United States of America

WALNUT GROVE, ALABAMA


Home > North America > United States > Alabama
Elevation: 85 feet     Latitude: 34 04N     Longitude: 086 19W

WEATHER
 
SELECT A DAY
Number of Records: 205,265;   Date Range: 3/15/06 - 8/28/14
 
SHARE

PRINT THIS DATA

[ ← Previous Day ]
WEATHER ALMANAC - APRIL 16, 2014
[ Next Day → ]
[ °C ]   °F
Weather ElementAverageHighLow
Temperature46.9 °F62.6 °F (5:35 pm)32 °F (4:35 am)
Dewpoint34 °F41 °F (2:55 pm)28.4 °F (1:35 am)
Humidity63.5 %93 % (4:35 am)42 % (5:55 pm)
Barometer30.21 in30.27 in (9:55 am)30.16 in (4:55 pm)
Wind Speed6.7 mph11.5 mph (12:35 pm)
Wind Gust16.1 mph (8:15 am)
Weather ElementAverage
Visibility10 mi
Wind DirectionESE (112.6 °)

Weather ElementTotal
Precipitation---
Heating Degree Days17.7 (Base 65)
Averaged from 70 records on April 16, 2014
WEATHER CONDITIONS BREAKOUT
WIND DIRECTION BREAKOUT
WEATHER BY HOUR - APRIL 16, 2014
[ °C ]   °F
Local TimeTemperatureDewpointHumidityBarometerVisibilityWind DirectionWind SpeedGust SpeedPrecipitationEventsConditions
12:35 AM35.6 °F30.2 °F81 %30.19 in10.0 miNorth (360°)6.9 mphScattered Clouds
12:55 AM35.6 °F30.2 °F81 %30.20 in10.0 miNorth (10°)4.6 mphScattered Clouds
1:15 AM35.6 °F30.2 °F81 %30.20 in10.0 miNorth (360°)8.1 mphScattered Clouds
1:35 AM35.6 °F28.4 °F75 %30.20 in10.0 miNorth (360°)9.2 mphScattered Clouds
1:55 AM35.6 °F30.2 °F81 %30.19 in10.0 miNorth (350°)10.4 mphClear
2:15 AM35.6 °F30.2 °F81 %30.19 in10.0 miNorth (360°)10.4 mphClear
2:35 AM33.8 °F30.2 °F87 %30.19 in10.0 miNorth (350°)9.2 mphClear
2:55 AM33.8 °F30.2 °F87 %30.18 in10.0 miNorth (10°)6.9 mphClear
3:15 AM33.8 °F30.2 °F87 %30.18 in10.0 miNorth (10°)5.8 mphClear
3:35 AM33.8 °F30.2 °F87 %30.18 in10.0 miNNE (20°)9.2 mphClear
3:55 AM33.8 °F30.2 °F87 %30.19 in10.0 miNNE (20°)8.1 mphClear
4:15 AM33.8 °F30.2 °F87 %30.19 in10.0 miNNE (30°)8.1 mphClear
4:35 AM32.0 °F30.2 °F93 %30.19 in10.0 miNE (40°)9.2 mphClear
4:55 AM32.0 °F30.2 °F93 %30.19 in10.0 miNNE (30°)9.2 mphScattered Clouds
5:15 AM32.0 °F30.2 °F93 %30.19 in10.0 miNE (40°)10.4 mphClear
5:35 AM32.0 °F28.4 °F87 %30.20 in10.0 miNE (40°)6.9 mphClear
5:55 AM32.0 °F28.4 °F87 %30.22 in10.0 miNE (50°)5.8 mphClear
6:15 AM32.0 °F28.4 °F87 %30.22 in10.0 miNE (50°)5.8 mphClear
6:35 AM32.0 °F28.4 °F87 %30.22 in10.0 miNE (50°)4.6 mphClear
6:55 AM32.0 °F30.2 °F93 %30.23 in10.0 miENE (60°)4.6 mphClear
7:15 AM33.8 °F30.2 °F87 %30.24 in10.0 miNE (40°)6.9 mphClear
7:35 AM33.8 °F30.2 °F87 %30.24 in10.0 miNE (50°)5.8 mphClear
7:55 AM35.6 °F30.2 °F81 %30.24 in10.0 miENE (60°)8.1 mphClear
8:15 AM37.4 °F30.2 °F75 %30.24 in10.0 miENE (70°)10.4 mph16.1 mphClear
8:35 AM39.2 °F30.2 °F70 %30.25 in10.0 miENE (60°)6.9 mphClear
8:55 AM41.0 °F30.2 °F65 %30.25 in10.0 miENE (70°)8.1 mphClear
9:15 AM42.8 °F32.0 °F66 %30.26 in10.0 miENE (70°)4.6 mph16.1 mphClear
9:35 AM44.6 °F32.0 °F61 %30.26 in10.0 miENE (70°)8.1 mphClear
9:55 AM46.4 °F32.0 °F57 %30.27 in10.0 miEast (80°)6.9 mphClear
10:15 AM46.4 °F32.0 °F57 %30.27 in10.0 miEast (90°)9.2 mphClear
10:35 AM50.0 °F33.8 °F54 %30.27 in10.0 miEast (80°)9.2 mphClear
10:55 AM48.2 °F32.0 °F54 %30.27 in10.0 miESE (120°)6.9 mphClear
11:15 AM50.0 °F32.0 °F50 %30.27 in10.0 miEast (90°)9.2 mphClear
11:35 AM51.8 °F35.6 °F54 %30.26 in10.0 miEast (90°)8.1 mphClear
11:55 AM51.8 °F35.6 °F54 %30.26 in10.0 miSSE (150°)6.9 mphClear
12:15 PM53.6 °F35.6 °F51 %30.25 in10.0 miESE (110°)5.8 mphClear
12:35 PM53.6 °F35.6 °F51 %30.25 in10.0 miESE (110°)11.5 mphClear
1:15 PM55.4 °F37.4 °F51 %30.24 in10.0 miESE (120°)5.8 mphClear
1:35 PM55.4 °F35.6 °F47 %30.22 in10.0 miESE (110°)6.9 mphClear
1:55 PM55.4 °F37.4 °F51 %30.21 in10.0 miEast (90°)9.2 mphClear
2:15 PM57.2 °F37.4 °F48 %30.20 in10.0 miEast (100°)8.1 mphClear
2:35 PM57.2 °F37.4 °F48 %30.19 in10.0 miESE (110°)3.5 mphClear
2:55 PM59.0 °F41.0 °F51 %30.18 in10.0 miENE (70°)8.1 mphClear
3:15 PM59.0 °F39.2 °F48 %30.17 in10.0 miEast (90°)6.9 mphClear
3:35 PM60.8 °F41.0 °F48 %30.17 in10.0 miEast (80°)6.9 mphClear
3:55 PM60.8 °F41.0 °F48 %30.17 in10.0 miSE (140°)5.8 mphClear
4:15 PM60.8 °F39.2 °F45 %30.17 in10.0 miSE (130°)5.8 mphClear
4:35 PM60.8 °F39.2 °F45 %30.17 in10.0 miSSE (160°)10.4 mphClear
4:55 PM60.8 °F39.2 °F45 %30.16 in10.0 miEast (80°)8.1 mphClear
5:15 PM60.8 °F39.2 °F45 %30.16 in10.0 miEast (100°)4.6 mphClear
5:35 PM62.6 °F41.0 °F45 %30.16 in10.0 miCalmClear
5:55 PM62.6 °F39.2 °F42 %30.16 in10.0 miSSE (160°)6.9 mphClear
6:15 PM60.8 °F37.4 °F42 %30.16 in10.0 miSE (140°)4.6 mphClear
6:35 PM60.8 °F37.4 °F42 %30.16 in10.0 miSSE (150°)5.8 mphClear
6:55 PM59.0 °F37.4 °F45 %30.16 in10.0 miSSE (160°)4.6 mphClear
7:15 PM57.2 °F37.4 °F48 %30.16 in10.0 miSSE (150°)3.5 mphClear
7:35 PM55.4 °F37.4 °F51 %30.17 in10.0 miSSE (150°)3.5 mphClear
7:55 PM55.4 °F35.6 °F47 %30.17 in10.0 miSE (130°)3.5 mphScattered Clouds
8:15 PM53.6 °F35.6 °F51 %30.18 in10.0 miSE (130°)4.6 mphScattered Clouds
8:35 PM53.6 °F35.6 °F51 %30.18 in10.0 miESE (110°)4.6 mphClear
8:55 PM51.8 °F37.4 °F58 %30.19 in10.0 miESE (120°)4.6 mphClear
9:15 PM51.8 °F35.6 °F54 %30.20 in10.0 miESE (110°)4.6 mphClear
9:35 PM51.8 °F35.6 °F54 %30.21 in10.0 miESE (120°)5.8 mphClear
9:55 PM51.8 °F35.6 °F54 %30.23 in10.0 miSE (130°)4.6 mphClear
10:15 PM50.0 °F35.6 °F58 %30.23 in10.0 miESE (110°)5.8 mphClear
10:35 PM51.8 °F35.6 °F54 %30.24 in10.0 miESE (120°)3.5 mphClear
10:55 PM50.0 °F35.6 °F58 %30.24 in10.0 miSE (130°)4.6 mphClear
11:15 PM50.0 °F35.6 °F58 %30.25 in10.0 miESE (120°)6.9 mphClear
11:35 PM50.0 °F35.6 °F58 %30.25 in10.0 miSE (130°)5.8 mphClear
11:55 PM50.0 °F35.6 °F58 %30.25 in10.0 miESE (120°)5.8 mphScattered Clouds
Hourly data recorded from K8A0, located miles away from Walnut Grove, Alabama







STORIES FROM OUR PARTNERS